Monticello, NY

5:53 PM EST on November 13, 2019 (GMT -0500)
Sullivan County International

Weather History for KMSV - October, 2019

Change the Weather History Date:

Wednesday, October 23, 2019

  Actual Average Record
Temperature  
Mean Temperature 50 °F -  
Max Temperature 59 °F 52 °F 69 °F (2007)
Min Temperature 42 °F 35 °F 23 °F (1997)
Degree Days  
Heating Degree Days 14    
Moisture  
Dew Point 42 °F    
Average Humidity 73    
Maximum Humidity 97    
Minimum Humidity 37    
Precipitation  
Precipitation 0.03 in - - ()
Sea Level Pressure  
Sea Level Pressure 29.96 in    
Wind  
Wind Speed 6 mph (West)    
Max Wind Speed 17 mph    
Max Gust Speed 25 mph    
Visibility 10 miles    
Events Rain    
Averages and records for this station are not official NWS values.
T = Trace of Precipitation, MM = Missing Value Source: NWS Daily Summary

Daily Weather History Graph

Daily Weather History Graph

Search for Another Location

Airport or City:

Astronomy

Oct. 23, 2019 Rise Set
Actual Time 7:20 AM EDT 6:06 PM EDT
Civil Twilight 6:51 AM EDT 6:34 PM EDT
Nautical Twilight 6:19 AM EDT 7:06 PM EDT
Astronomical Twilight 5:47 AM EDT 7:39 PM EDT
Moon 1:29 AM EDT (10/23) 4:00 PM EDT (10/23)
Length of Visible Light 11h 42m
Length of Day
10h 45m
Waning Crescent, 27% of the Moon is Illuminated
Oct 23
Waning Crescent
Oct 27
New
Nov 4
First Quarter
Nov 12
Full
Nov 19
Last Quarter

Hourly Weather History & Observations

Time (EDT) Temp. Windchill Dew Point Humidity Pressure Visibility Wind Dir Wind Speed Gust Speed Precip Events Conditions
12:04 AM 53.6 °F - 51.8 °F 94% 29.83 in 2.0 mi Calm Calm - 0.00 in Rain Light Rain
12:24 AM 53.6 °F - 51.8 °F 94% 29.83 in 3.0 mi NW 6.9 mph - 0.02 in Rain Light Rain
12:56 AM 53.1 °F - 51.1 °F 93% 29.83 in 10.0 mi North 3.5 mph - 0.02 in   Overcast
1:56 AM 53.1 °F - 51.1 °F 93% 29.84 in 10.0 mi WNW 5.8 mph - 0.00 in Rain Light Rain
2:56 AM 51.1 °F - 50.0 °F 96% 29.84 in 10.0 mi WNW 5.8 mph - 0.01 in   Scattered Clouds
3:51 AM 51.8 °F - 50.0 °F 94% 29.83 in 10.0 mi WNW 8.1 mph - N/A   Mostly Cloudy
3:56 AM 51.1 °F - 50.0 °F 96% 29.83 in 10.0 mi WNW 8.1 mph - N/A   Scattered Clouds
4:56 AM 48.9 °F - 48.0 °F 97% 29.86 in 10.0 mi West 5.8 mph - N/A   Clear
5:56 AM 48.0 °F - 46.9 °F 96% 29.87 in 10.0 mi West 5.8 mph - N/A   Clear
6:56 AM 46.9 °F - 46.0 °F 97% 29.89 in 10.0 mi West 5.8 mph - N/A   Clear
7:56 AM 46.0 °F 43.1 °F 45.0 °F 96% 29.91 in 10.0 mi West 5.8 mph - N/A   Clear
8:56 AM 48.9 °F - 46.9 °F 93% 29.93 in 10.0 mi WSW 3.5 mph - N/A   Clear
9:56 AM 51.1 °F - 46.9 °F 86% 29.96 in 10.0 mi West 9.2 mph - N/A   Scattered Clouds
10:05 AM 51.8 °F - 46.4 °F 82% 29.95 in 10.0 mi West 10.4 mph - N/A   Mostly Cloudy
10:12 AM 51.8 °F - 46.4 °F 82% 29.95 in 10.0 mi West 8.1 mph 16.1 mph N/A   Mostly Cloudy
10:39 AM 53.6 °F - 44.6 °F 72% 29.95 in 10.0 mi WNW 17.3 mph 21.9 mph N/A   Mostly Cloudy
10:56 AM 53.1 °F - 45.0 °F 74% 29.96 in 10.0 mi WNW 10.4 mph - N/A   Scattered Clouds
11:56 AM 55.9 °F - 39.0 °F 53% 29.95 in 10.0 mi West 12.7 mph 23.0 mph N/A   Clear
12:56 PM 57.0 °F - 34.0 °F 42% 29.96 in 10.0 mi West 12.7 mph 18.4 mph N/A   Clear
1:56 PM 57.9 °F - 34.0 °F 41% 29.96 in 10.0 mi West 15.0 mph 25.3 mph N/A   Clear
2:56 PM 57.9 °F - 32.0 °F 37% 29.96 in 10.0 mi West 15.0 mph 21.9 mph N/A   Clear
3:56 PM 57.9 °F - 33.1 °F 39% 29.97 in 10.0 mi West 13.8 mph 20.7 mph N/A   Clear
4:56 PM 57.0 °F - 33.1 °F 40% 30.01 in 10.0 mi West 8.1 mph 17.3 mph N/A   Scattered Clouds
5:56 PM 54.0 °F - 33.1 °F 45% 30.05 in 10.0 mi West 6.9 mph - N/A   Clear
6:56 PM 51.1 °F - 33.1 °F 50% 30.07 in 10.0 mi West 5.8 mph - N/A   Clear
7:56 PM 48.0 °F - 34.0 °F 58% 30.11 in 10.0 mi West 6.9 mph - N/A   Clear
8:56 PM 46.9 °F - 33.1 °F 59% 30.14 in 10.0 mi West 5.8 mph - N/A   Clear
9:56 PM 45.0 °F 41.8 °F 33.1 °F 63% 30.16 in 10.0 mi West 5.8 mph - N/A   Clear
10:56 PM 44.1 °F 40.8 °F 32.0 °F 63% 30.18 in 10.0 mi West 5.8 mph - N/A   Clear
11:56 PM 42.1 °F 39.2 °F 32.0 °F 67% 30.19 in 10.0 mi WSW 4.6 mph - N/A   Clear